When you browse on this site, cookies collect data to enhance your experience and personalize the content and advertising you see.
Visit our Privacy Policy to learn more. By continuing to use the site, you agree to this use of cookies and data.
  • Em Portugal
  • Lista de países
  • Para 7 dias
  • Temperatura da água
  • Mapa do tempo
  • Widgets de tempo
  • user-avatar
    Iniciar Sessão

    Previsão horária em Ballycastle

    Hoje, 23 Setembro, Segunda-feira

    Tempo Temperatura Precipitação Vento Pressão Humidade
    00:00 +15°C° 0 mm 2 m/s 748 mmHg 96%
    01:00 +15°C° 0.2 mm 2 m/s 748 mmHg 97%
    02:00 +15°C° 0.2 mm 2 m/s 748 mmHg 97%
    03:00 +15°C° 0.2 mm 2 m/s 747 mmHg 97%
    04:00 +14°C° 0.1 mm 2 m/s 748 mmHg 97%
    05:00 +14°C° 0.1 mm 2 m/s 748 mmHg 97%
    06:00 +13°C° 0 mm 3 m/s 748 mmHg 97%
    07:00 +13°C° 0.2 mm 3 m/s 748 mmHg 96%
    08:00 +13°C° 0.2 mm 4 m/s 748 mmHg 94%
    09:00 +13°C° 0.2 mm 4 m/s 748 mmHg 92%
    10:00 +14°C° 0.1 mm 5 m/s 748 mmHg 87%
    11:00 +14°C° 0.1 mm 6 m/s 748 mmHg 82%
    12:00 +15°C° 0 mm 6 m/s 749 mmHg 76%
    13:00 +15°C° 0 mm 7 m/s 748 mmHg 78%
    14:00 +15°C° 0 mm 8 m/s 747 mmHg 80%
    15:00 +15°C° 0 mm 9 m/s 747 mmHg 82%
    16:00 +15°C° 0.3 mm 9 m/s 746 mmHg 85%
    17:00 +13°C° 0.3 mm 9 m/s 746 mmHg 89%
    18:00 +12°C° 0.3 mm 10 m/s 745 mmHg 93%
    19:00 +12°C° 0.3 mm 9 m/s 745 mmHg 94%
    20:00 +13°C° 0.3 mm 8 m/s 745 mmHg 95%
    21:00 +14°C° 0.3 mm 7 m/s 744 mmHg 96%
    22:00 +14°C° 0.2 mm 6 m/s 744 mmHg 96%
    23:00 +14°C° 0.2 mm 6 m/s 744 mmHg 96%

    Amanhã, 24 Setembro, Terça-feira

    Tempo Temperatura Precipitação Vento Pressão Humidade
    00:00 +14°C° 0.2 mm 5 m/s 744 mmHg 96%
    01:00 +14°C° 0.3 mm 5 m/s 744 mmHg 96%
    02:00 +14°C° 0.3 mm 5 m/s 743 mmHg 96%
    03:00 +14°C° 0.3 mm 5 m/s 743 mmHg 96%
    04:00 +14°C° 0.2 mm 4 m/s 743 mmHg 96%
    05:00 +14°C° 0.2 mm 4 m/s 743 mmHg 96%
    06:00 +14°C° 0.2 mm 3 m/s 743 mmHg 96%
    07:00 +14°C° 0 mm 3 m/s 743 mmHg 95%
    08:00 +15°C° 0 mm 4 m/s 743 mmHg 93%
    09:00 +15°C° 0 mm 4 m/s 743 mmHg 92%
    10:00 +17°C° 0 mm 4 m/s 743 mmHg 88%
    11:00 +17°C° 0 mm 4 m/s 743 mmHg 84%
    12:00 +18°C° 0 mm 4 m/s 743 mmHg 81%
    13:00 +18°C° 0 mm 4 m/s 743 mmHg 80%
    14:00 +18°C° 0 mm 4 m/s 743 mmHg 79%
    15:00 +18°C° 0 mm 3 m/s 743 mmHg 78%
    16:00 +17°C° 0 mm 3 m/s 742 mmHg 82%
    17:00 +17°C° 0 mm 3 m/s 742 mmHg 86%
    18:00 +16°C° 0 mm 3 m/s 742 mmHg 90%
    19:00 +15°C° 0 mm 2 m/s 743 mmHg 91%
    20:00 +14°C° 0 mm 2 m/s 743 mmHg 91%
    21:00 +14°C° 0 mm 2 m/s 743 mmHg 92%
    22:00 +13°C° 0 mm 2 m/s 743 mmHg 92%
    23:00 +13°C° 0 mm 1 m/s 743 mmHg 92%

    Depois de amanhã, 25 Setembro, Quarta-feira

    Tempo Temperatura Precipitação Vento Pressão Humidade
    00:00 +13°C° 0 mm 1 m/s 743 mmHg 92%
    01:00 +13°C° 0 mm 1 m/s 743 mmHg 93%
    02:00 +13°C° 0 mm 1 m/s 743 mmHg 93%
    03:00 +13°C° 0 mm 1 m/s 744 mmHg 93%
    04:00 +13°C° 0 mm 1 m/s 744 mmHg 94%
    05:00 +13°C° 0 mm 2 m/s 744 mmHg 94%
    06:00 +13°C° 0 mm 2 m/s 744 mmHg 94%
    07:00 +14°C° 0 mm 2 m/s 744 mmHg 92%
    08:00 +13°C° 0 mm 3 m/s 744 mmHg 90%
    09:00 +14°C° 0 mm 3 m/s 745 mmHg 88%
    10:00 +16°C° 0 mm 3 m/s 745 mmHg 85%
    11:00 +17°C° 0 mm 2 m/s 745 mmHg 82%
    12:00 +18°C° 0 mm 2 m/s 745 mmHg 79%
    13:00 +18°C° 0.1 mm 3 m/s 745 mmHg 80%
    14:00 +18°C° 0.1 mm 3 m/s 745 mmHg 82%
    15:00 +18°C° 0.1 mm 4 m/s 745 mmHg 83%
    16:00 +17°C° 0.1 mm 4 m/s 745 mmHg 86%
    17:00 +15°C° 0.1 mm 5 m/s 745 mmHg 89%
    18:00 +15°C° 0.1 mm 6 m/s 744 mmHg 92%
    19:00 +14°C° 0.2 mm 6 m/s 744 mmHg 93%
    20:00 +14°C° 0.2 mm 6 m/s 744 mmHg 94%
    21:00 +14°C° 0.2 mm 6 m/s 743 mmHg 95%
    22:00 +14°C° 2 mm 6 m/s 743 mmHg 95%
    23:00 +14°C° 2 mm 6 m/s 742 mmHg 96%

    26 Setembro, Quinta-feira

    Tempo Temperatura Precipitação Vento Pressão Humidade
    00:00 +14°C° 2 mm 5 m/s 742 mmHg 97%
    01:00 +14°C° 0.8 mm 6 m/s 742 mmHg 96%
    02:00 +13°C° 0.8 mm 6 m/s 742 mmHg 94%
    03:00 +13°C° 0.8 mm 6 m/s 742 mmHg 93%
    04:00 +11°C° 0 mm 6 m/s 742 mmHg 92%
    05:00 +10°C° 0 mm 6 m/s 742 mmHg 92%
    06:00 +10°C° 0 mm 6 m/s 742 mmHg 91%
    07:00 +10°C° 0.1 mm 6 m/s 743 mmHg 89%
    08:00 +11°C° 0.1 mm 7 m/s 743 mmHg 88%
    09:00 +11°C° 0.1 mm 7 m/s 743 mmHg 86%
    10:00 +12°C° 0.1 mm 7 m/s 743 mmHg 83%
    11:00 +12°C° 0.1 mm 7 m/s 744 mmHg 81%
    12:00 +12°C° 0.1 mm 8 m/s 744 mmHg 78%
    13:00 +12°C° 0.2 mm 7 m/s 744 mmHg 78%
    14:00 +12°C° 0.2 mm 7 m/s 744 mmHg 79%
    15:00 +12°C° 0.2 mm 7 m/s 744 mmHg 79%
    16:00 +12°C° 0.1 mm 7 m/s 744 mmHg 81%
    17:00 +11°C° 0.1 mm 7 m/s 744 mmHg 83%
    18:00 +11°C° 0.1 mm 7 m/s 743 mmHg 84%
    19:00 +10°C° 0.1 mm 7 m/s 743 mmHg 86%
    20:00 +10°C° 0.1 mm 8 m/s 744 mmHg 87%
    21:00 +10°C° 0.1 mm 8 m/s 744 mmHg 89%
    22:00 +10°C° 0.3 mm 9 m/s 743 mmHg 89%
    23:00 +10°C° 0.3 mm 9 m/s 743 mmHg 89%

    27 Setembro, Sexta-feira

    Tempo Temperatura Precipitação Vento Pressão Humidade
    00:00 +10°C° 0.3 mm 9 m/s 743 mmHg 90%
    01:00 +11°C° 0.3 mm 9 m/s 742 mmHg 91%
    02:00 +11°C° 0.3 mm 9 m/s 742 mmHg 92%
    03:00 +11°C° 0.3 mm 9 m/s 741 mmHg 92%
    04:00 +11°C° 0.4 mm 9 m/s 741 mmHg 91%
    05:00 +11°C° 0.4 mm 9 m/s 741 mmHg 90%
    06:00 +11°C° 0.4 mm 10 m/s 741 mmHg 89%
    07:00 +11°C° 0.1 mm 9 m/s 742 mmHg 88%
    08:00 +11°C° 0.1 mm 8 m/s 742 mmHg 87%
    09:00 +11°C° 0.1 mm 8 m/s 743 mmHg 86%
    10:00 +11°C° 0.3 mm 8 m/s 743 mmHg 85%
    11:00 +12°C° 0.3 mm 8 m/s 743 mmHg 83%
    12:00 +12°C° 0.3 mm 8 m/s 744 mmHg 82%
    13:00 +12°C° 0.5 mm 8 m/s 744 mmHg 82%
    14:00 +12°C° 0.5 mm 8 m/s 744 mmHg 82%
    15:00 +12°C° 0.5 mm 8 m/s 744 mmHg 82%
    16:00 +11°C° 0.2 mm 8 m/s 744 mmHg 84%
    17:00 +11°C° 0.2 mm 7 m/s 744 mmHg 85%
    18:00 +10°C° 0.2 mm 7 m/s 744 mmHg 86%
    19:00 +10°C° 0 mm 6 m/s 745 mmHg 88%
    20:00 +10°C° 0 mm 6 m/s 745 mmHg 90%
    21:00 +9°C° 0 mm 6 m/s 745 mmHg 91%
    22:00 +9°C° 0.9 mm 6 m/s 745 mmHg 92%
    23:00 +10°C° 0.9 mm 6 m/s 745 mmHg 93%

    28 Setembro, Sábado

    Tempo Temperatura Precipitação Vento Pressão Humidade
    00:00 +10°C° 0.9 mm 6 m/s 745 mmHg 94%
    01:00 +10°C° 0.2 mm 7 m/s 744 mmHg 94%
    02:00 +10°C° 0.2 mm 7 m/s 744 mmHg 93%
    03:00 +10°C° 0.2 mm 8 m/s 744 mmHg 93%
    04:00 +10°C° 0.8 mm 8 m/s 744 mmHg 93%
    05:00 +10°C° 0.8 mm 7 m/s 744 mmHg 93%
    06:00 +11°C° 0.8 mm 7 m/s 745 mmHg 93%
    07:00 +11°C° 0.6 mm 7 m/s 745 mmHg 92%
    08:00 +11°C° 0.6 mm 7 m/s 745 mmHg 91%
    09:00 +11°C° 0.6 mm 6 m/s 745 mmHg 90%
    10:00 +11°C° 0.2 mm 6 m/s 746 mmHg 88%
    11:00 +13°C° 0.2 mm 6 m/s 746 mmHg 85%
    12:00 +13°C° 0.2 mm 6 m/s 747 mmHg 83%
    13:00 +12°C° 0.1 mm 7 m/s 747 mmHg 82%
    14:00 +12°C° 0.1 mm 7 m/s 747 mmHg 80%
    15:00 +14°C° 0.1 mm 7 m/s 747 mmHg 79%
    16:00 +13°C° 0.1 mm 6 m/s 747 mmHg 82%
    17:00 +12°C° 0.1 mm 5 m/s 747 mmHg 86%
    18:00 +10°C° 0.1 mm 5 m/s 747 mmHg 89%
    19:00 +10°C° 0.1 mm 5 m/s 747 mmHg 90%
    20:00 +9°C° 0.1 mm 5 m/s 748 mmHg 92%
    21:00 +9°C° 0.1 mm 5 m/s 748 mmHg 93%
    22:00 +9°C° 0.1 mm 6 m/s 748 mmHg 93%
    23:00 +8°C° 0.1 mm 6 m/s 747 mmHg 93%
    Mostrar mais